sat.trackr.live / text

‹ back to catalog

WILDFIRE 6

NORAD 57763 · 2023-133G

PAYLOAD ACTIVE UNKNOWN

§ Identity

Operator
Country
US
Launch date
2023-09-02
Launch site
AFWTR
Launch vehicle
Mass (kg)
RCS (m²)

External: N2YO · Heavens-Above · Gunter

§ Orbital elements

Epoch: 2026-05-25T03:19:21.838080Z

Period
103.95 min
Inclination
80.9968°
Eccentricity
0.0006857
Mean motion
13.85340562 rev/d
Perigee alt
940.0 km
Apogee alt
950.0 km
Semi-major
7,323.1 km
B*
1.1875e-4
RAAN
29.2729°
Arg perigee
78.3152°
Mean anomaly
281.8773°
Rev number
13,782

§ Raw data

WILDFIRE 61 57763U 23133G   26145.13844720  .00000146  00000+0  11875-3 0  99922 57763  80.9968  29.2729 0006857  78.3152 281.8773 13.85340562137827

JSON: /api/v1/satellites/57763 · /tle

For live sub-satellite position, see the globe view (requires WebGL).

§ Visibility from observer

Set your observer location to see the next 7 days of passes ≥ 10°. The values pass through the URL so the page stays shareable.

No JS? Fill the form by hand. The geolocation button needs JavaScript.